TimeCDT,TemperatureF,Dew PointF,Humidity,Sea Level PressureIn,VisibilityMPH,Wind Direction,Wind SpeedMPH,Gust SpeedMPH,PrecipitationIn,Events,Conditions,WindDirDegrees,DateUTC
7:16 AM,33.8,-9999,N/A,29.86,9.0,NW,8.1,-,N/A,Snow,Light Snow,320,2012-10-01 12:16:00
7:24 AM,33.8,-9999,N/A,29.85,9.0,NW,6.9,-,N/A,,Overcast,320,2012-10-01 12:24:00
7:30 AM,33.8,-9999,N/A,29.86,9.0,NNW,9.2,-,N/A,,Overcast,330,2012-10-01 12:30:00
7:44 AM,32.0,-9999,N/A,29.86,9.0,NNW,10.4,-,N/A,,Mostly Cloudy,340,2012-10-01 12:44:00
7:45 AM,32.0,-9999,N/A,29.86,9.0,NNW,10.4,-,N/A,,Overcast,340,2012-10-01 12:45:00
7:46 AM,32.0,-9999,N/A,29.86,9.0,NNW,10.4,-,N/A,,Overcast,330,2012-10-01 12:46:00
7:50 AM,32.0,-9999,N/A,29.86,9.0,NNW,10.4,-,N/A,,Overcast,330,2012-10-01 12:50:00
7:55 AM,32.0,-9999,N/A,29.86,9.0,NNW,10.4,-,N/A,,Overcast,330,2012-10-01 12:55:00
7:59 AM,32.0,-9999,N/A,29.86,9.0,NNW,10.4,-,N/A,,Overcast,330,2012-10-01 12:59:00
8:00 AM,32.0,-9999,N/A,29.87,9.0,NNW,10.4,-,N/A,,Overcast,330,2012-10-01 13:00:00
9:00 AM,32.0,-9999,N/A,29.86,9.0,NNW,16.1,-,N/A,,Overcast,330,2012-10-01 14:00:00
10:00 AM,31,,,,9,NNW,15.0,,,,Overcast,340,2012-10-01 15:00:00
10:00 AM,30.2,-9999,N/A,29.86,9.0,NNW,12.7,19.6,N/A,,Overcast,340,2012-10-01 15:00:00
11:00 AM,32.0,-9999,N/A,29.86,9.0,NNW,15.0,20.7,N/A,,Unknown,340,2012-10-01 16:00:00
11:26 AM,32.0,-9999,N/A,29.86,9.0,NNW,17.3,-,N/A,,Scattered Clouds,330,2012-10-01 16:26:00
12:00 PM,32.0,-9999,N/A,29.85,9.0,NNW,15.0,-,N/A,,Mostly Cloudy,330,2012-10-01 17:00:00
12:22 PM,32.0,-9999,N/A,29.85,9.0,NNW,15.0,-,N/A,,Overcast,330,2012-10-01 17:22:00
12:31 PM,32.0,-9999,N/A,29.85,9.0,NW,15.0,-,N/A,,Clear,320,2012-10-01 17:31:00
12:54 PM,32.0,-9999,N/A,29.85,9.0,NNW,18.4,-,N/A,Snow,Light Snow,330,2012-10-01 17:54:00
12:59 PM,32.0,-9999,N/A,29.85,9.0,NNW,17.3,-,N/A,Snow,Light Snow,340,2012-10-01 17:59:00
1:00 PM,32,,,,9,NNW,18.4,,,,,330,2012-10-01 18:00:00
1:00 PM,32.0,-9999,N/A,29.85,9.0,NNW,17.3,-,N/A,Snow,Light Snow,340,2012-10-01 18:00:00
1:09 PM,32.0,-9999,N/A,29.85,9.0,NNW,18.4,-,N/A,,Overcast,340,2012-10-01 18:09:00
1:19 PM,32.0,-9999,N/A,29.85,9.0,North,19.6,-,N/A,,Mostly Cloudy,350,2012-10-01 18:19:00
1:29 PM,32.0,-9999,N/A,29.85,9.0,North,16.1,-,N/A,,Scattered Clouds,350,2012-10-01 18:29:00
1:46 PM,32.0,-9999,N/A,29.86,9.0,North,20.7,-,N/A,Snow,Light Snow,350,2012-10-01 18:46:00
1:47 PM,32.0,-9999,N/A,29.86,9.0,North,19.6,-,N/A,,Scattered Clouds,350,2012-10-01 18:47:00
1:55 PM,32.0,-9999,N/A,29.86,9.0,North,13.8,21.9,N/A,,Mostly Cloudy,350,2012-10-01 18:55:00
1:59 PM,32.0,-9999,N/A,29.85,9.0,North,15.0,-,N/A,,Mostly Cloudy,350,2012-10-01 18:59:00
2:00 PM,32.0,-9999,N/A,29.85,9.0,North,17.3,-,N/A,,Mostly Cloudy,350,2012-10-01 19:00:00
2:03 PM,32.0,-9999,N/A,29.85,9.0,North,15.0,-,N/A,Snow,Light Snow,350,2012-10-01 19:03:00
2:11 PM,30.2,-9999,N/A,29.86,3.0,North,17.3,-,N/A,Snow,Light Snow,360,2012-10-01 19:11:00
2:12 PM,30.2,-9999,N/A,29.86,2.8,North,16.1,21.9,N/A,Snow,Light Snow,360,2012-10-01 19:12:00
2:16 PM,30.2,-9999,N/A,29.86,2.5,North,15.0,21.9,N/A,Snow,Light Snow,360,2012-10-01 19:16:00
2:21 PM,32.0,-9999,N/A,29.86,3.0,North,15.0,-,N/A,Snow,Light Snow,350,2012-10-01 19:21:00
2:27 PM,32.0,-9999,N/A,29.86,9.0,North,15.0,-,N/A,,Overcast,350,2012-10-01 19:27:00
2:43 PM,32.0,-9999,N/A,29.86,9.0,North,17.3,-,N/A,Snow,Light Snow,350,2012-10-01 19:43:00
2:55 PM,32.0,-9999,N/A,29.86,9.0,NNE,15.0,20.7,N/A,Snow,Light Snow,20,2012-10-01 19:55:00
2:56 PM,32.0,-9999,N/A,29.86,9.0,NNE,16.1,-,N/A,,Overcast,20,2012-10-01 19:56:00
3:00 PM,32.0,-9999,N/A,29.86,9.0,NNE,16.1,-,N/A,,Overcast,20,2012-10-01 20:00:00
3:04 PM,30.2,-9999,N/A,29.86,9.0,North,15.0,-,N/A,,Overcast,360,2012-10-01 20:04:00
3:16 PM,30.2,-9999,N/A,29.86,9.0,North,13.8,-,N/A,,Mostly Cloudy,10,2012-10-01 20:16:00
3:30 PM,32.0,-9999,N/A,29.86,9.0,North,16.1,-,N/A,,Scattered Clouds,360,2012-10-01 20:30:00
3:35 PM,30.2,-9999,N/A,29.87,7.0,North,23.0,-,N/A,Snow,Light Snow,10,2012-10-01 20:35:00
3:38 PM,30.2,-9999,N/A,29.87,3.0,North,19.6,-,N/A,Snow,Light Snow,10,2012-10-01 20:38:00
3:39 PM,30.2,-9999,N/A,29.87,2.5,NNE,19.6,-,N/A,Snow,Light Snow,20,2012-10-01 20:39:00
3:51 PM,30.2,-9999,N/A,29.87,3.0,North,13.8,-,N/A,,Unknown,10,2012-10-01 20:51:00
3:54 PM,30.2,-9999,N/A,29.87,9.0,North,15.0,-,N/A,,Unknown,10,2012-10-01 20:54:00
4:00 PM,31,,,,9,North,13.8,,,,,10,2012-10-01 21:00:00
4:00 PM,30.2,-9999,N/A,29.87,9.0,North,13.8,-,N/A,,Unknown,10,2012-10-01 21:00:00
4:26 PM,32.0,-9999,N/A,29.87,9.0,North,13.8,-,N/A,,Partly Cloudy,10,2012-10-01 21:26:00
5:00 PM,32.0,-9999,N/A,29.88,9.0,North,13.8,19.6,N/A,,Clear,10,2012-10-01 22:00:00
5:32 PM,32.0,-9999,N/A,29.89,9.0,North,11.5,-,N/A,,Mostly Cloudy,360,2012-10-01 22:32:00
6:00 PM,30.2,-9999,N/A,29.89,9.0,North,16.1,-,N/A,,Overcast,350,2012-10-01 23:00:00
6:15 PM,30.2,-9999,N/A,29.89,4.0,North,20.7,-,N/A,Snow,Light Snow,360,2012-10-01 23:15:00
6:16 PM,30.2,-9999,N/A,29.89,2.2,North,20.7,-,N/A,Snow,Light Snow,360,2012-10-01 23:16:00
6:18 PM,30.2,-9999,N/A,29.89,1.4,North,16.1,23.0,N/A,Snow,Light Snow,360,2012-10-01 23:18:00
6:21 PM,30.2,-9999,N/A,29.89,1.1,North,17.3,23.0,N/A,Snow,Light Snow,10,2012-10-01 23:21:00
6:24 PM,30.2,-9999,N/A,29.89,1.1,North,15.0,21.9,N/A,Snow,Light Snow,10,2012-10-01 23:24:00
6:25 PM,30.2,-9999,N/A,29.89,1.2,North,17.3,-,N/A,Snow,Light Snow,10,2012-10-01 23:25:00
6:28 PM,30.2,-9999,N/A,29.89,3.0,North,17.3,-,N/A,Snow,Light Snow,10,2012-10-01 23:28:00
6:30 PM,30.2,-9999,N/A,29.90,3.0,NNE,18.4,-,N/A,Snow,Light Snow,20,2012-10-01 23:30:00
6:31 PM,30.2,-9999,N/A,29.90,2.0,NNE,17.3,-,N/A,Snow,Light Snow,20,2012-10-01 23:31:00
6:32 PM,30.2,-9999,N/A,29.90,1.4,NNE,17.3,-,N/A,Snow,Light Snow,20,2012-10-01 23:32:00
6:34 PM,30.2,-9999,N/A,29.90,0.8,NNE,18.4,-,N/A,Snow,Light Snow,20,2012-10-01 23:34:00
6:35 PM,30.2,-9999,N/A,29.90,0.6,NNE,18.4,-,N/A,Snow,Light Snow,20,2012-10-01 23:35:00
6:41 PM,30.2,-9999,N/A,29.90,0.6,North,16.1,-,N/A,Snow,Light Snow,10,2012-10-01 23:41:00
6:42 PM,30.2,-9999,N/A,29.90,0.6,NNE,16.1,-,N/A,Snow,Light Snow,20,2012-10-01 23:42:00
6:44 PM,30.2,-9999,N/A,29.90,1.1,NNE,17.3,-,N/A,Snow,Light Snow,20,2012-10-01 23:44:00
6:45 PM,30.2,-9999,N/A,29.90,1.4,NNE,17.3,-,N/A,Snow,Light Snow,20,2012-10-01 23:45:00
6:51 PM,30.2,-9999,N/A,29.90,1.4,NNE,18.4,-,N/A,,Unknown,20,2012-10-01 23:51:00
6:54 PM,30.2,-9999,N/A,29.90,2.4,NNE,17.3,-,N/A,,Unknown,20,2012-10-01 23:54:00
6:59 PM,30.2,-9999,N/A,29.90,4.0,NNE,16.1,-,N/A,,Overcast,20,2012-10-01 23:59:00
7:00 PM,30,,,,5,NNE,17.3,,,,Overcast,20,2012-10-02 00:00:00
7:00 PM,30.2,-9999,N/A,29.90,5.0,NNE,17.3,-,N/A,,Overcast,20,2012-10-02 00:00:00
8:35 PM,30.2,-9999,N/A,29.92,9.0,NNW,16.1,-,N/A,,Overcast,340,2012-10-02 01:35:00
8:59 PM,30.2,-9999,N/A,29.91,9.0,North,18.4,-,N/A,,Mostly Cloudy,350,2012-10-02 01:59:00
9:00 PM,30.2,-9999,N/A,29.93,9.0,North,17.3,23.0,N/A,,Mostly Cloudy,350,2012-10-02 02:00:00
10:00 PM,29,,,29.93,9,NNW,17.3,,,,,340,2012-10-02 03:00:00
10:00 PM,28.4,-9999,N/A,29.93,9.0,NNW,17.3,-,N/A,,Clear,340,2012-10-02 03:00:00
11:00 PM,28.4,-9999,N/A,29.93,9.0,NNW,15.0,-,N/A,,Clear,340,2012-10-02 04:00:00